Location: Gleizolles
(44.4833°N, 6.7667°E)
Time: 14:55:37
(UTC+00:00)

deb Explorer IX - Pass Details

Date: 29 June 2024
Orbit: 510 x 878 km, 38.7° (Epoch: 21 July)

Event Time Altitude Azimuth Distance (km) Brightness Sun altitude
Rises 06:26:25 0° 249° (WSW) 2,631 ? 24.7°
Reaches altitude 10° 06:28:40 10° 241° (WSW) 1,770 ? 25.1°
Maximum altitude 06:32:24 36° 173° (S) 880 ? 25.7°
Drops below altitude 10° 06:36:25 10° 107° (ESE) 1,919 ? 26.5°
Sets 06:38:58 0° 99° (E) 2,887 ? 26.9°
